User: anonymous   Login
Location: Peebles
(55.6412°N, 3.1714°W)
Time: 08:51:24
(UTC+00:00)
Language:

deb Kosmos-1275 - Orbit

View from above orbital plane
View from above orbital plane
View from above satellite
View from above satellite

Ground track
Ground track

The orbit data is extracted from the following two-line orbital elements,

1 12950U 81053EE  22333.30272983  .00000679  00000-0  34977-3 0  9996
2 12950  83.0135  16.2584 0054577 204.0717 287.8002 14.13112806117434
Epoch (UTC): 29 November 2022 07:15:55
Eccentricity: 0.0054577
inclination: 83.0135°
perigee height: 809 km
apogee height: 888 km
right ascension of ascending node: 16.2584°
argument of perigee: 204.0717°
revolutions per day: 14.13112806
mean anomaly at epoch: 287.8002°
orbit number at epoch: 11743

The dashed part of the orbit path shows where the satellite is in the earth's shadow,  

DLR